• In Uzbekistan
  • List of Countries
  • For 7 days
  • Water Temperature
  • Satellite Maps
  • Weather Map
  • Weather Widgets
  • user-avatar
    Login

    Hourly Weather Olekminsk

    Today, 19 July, Friday

    Time Temperature Precipitation Wind Pressure Humidity
    00:00 +12°C° 0 mm 2 mps 739 mmHg 72%
    01:00 +10°C° 0 mm 2 mps 739 mmHg 74%
    02:00 +9°C° 0 mm 2 mps 739 mmHg 73%
    03:00 +9°C° 0 mm 2 mps 739 mmHg 72%
    04:00 +10°C° 0 mm 1 mps 740 mmHg 71%
    05:00 +11°C° 0 mm 1 mps 740 mmHg 69%
    06:00 +12°C° 0 mm 2 mps 740 mmHg 62%
    07:00 +14°C° 0 mm 2 mps 740 mmHg 55%
    08:00 +16°C° 0 mm 3 mps 741 mmHg 47%
    09:00 +17°C° 0 mm 3 mps 741 mmHg 43%
    10:00 +18°C° 0 mm 3 mps 741 mmHg 40%
    11:00 +19°C° 0 mm 3 mps 741 mmHg 36%
    12:00 +19°C° 0 mm 4 mps 741 mmHg 34%
    13:00 +20°C° 0 mm 4 mps 741 mmHg 33%
    14:00 +20°C° 0 mm 4 mps 741 mmHg 32%
    15:00 +20°C° 0 mm 4 mps 741 mmHg 32%
    16:00 +20°C° 0 mm 4 mps 741 mmHg 32%
    17:00 +19°C° 0 mm 4 mps 741 mmHg 32%
    18:00 +18°C° 0 mm 3 mps 741 mmHg 38%
    19:00 +16°C° 0 mm 3 mps 742 mmHg 44%
    20:00 +15°C° 0 mm 2 mps 742 mmHg 50%
    21:00 +13°C° 0 mm 2 mps 742 mmHg 55%
    22:00 +12°C° 0 mm 2 mps 743 mmHg 60%
    23:00 +9°C° 0 mm 2 mps 743 mmHg 64%

    Tomorrow, 20 July, Saturday

    Time Temperature Precipitation Wind Pressure Humidity
    00:00 +8°C° 0 mm 2 mps 743 mmHg 67%
    01:00 +7°C° 0 mm 2 mps 743 mmHg 70%
    02:00 +7°C° 0 mm 1 mps 744 mmHg 73%
    03:00 +8°C° 0 mm 1 mps 744 mmHg 71%
    04:00 +8°C° 0 mm 1 mps 744 mmHg 69%
    05:00 +9°C° 0 mm 1 mps 744 mmHg 68%
    06:00 +10°C° 0 mm 2 mps 744 mmHg 60%
    07:00 +12°C° 0 mm 3 mps 744 mmHg 52%
    08:00 +14°C° 0 mm 3 mps 744 mmHg 44%
    09:00 +15°C° 0 mm 4 mps 744 mmHg 40%
    10:00 +18°C° 0 mm 4 mps 744 mmHg 36%
    11:00 +19°C° 0 mm 4 mps 744 mmHg 32%
    12:00 +20°C° 0 mm 4 mps 744 mmHg 31%
    13:00 +21°C° 0 mm 4 mps 743 mmHg 30%
    14:00 +21°C° 0 mm 4 mps 743 mmHg 29%
    15:00 +21°C° 0 mm 4 mps 743 mmHg 29%
    16:00 +21°C° 0 mm 4 mps 743 mmHg 29%
    17:00 +21°C° 0 mm 5 mps 743 mmHg 30%
    18:00 +20°C° 0 mm 4 mps 743 mmHg 36%
    19:00 +18°C° 0 mm 3 mps 743 mmHg 42%
    20:00 +16°C° 0 mm 3 mps 744 mmHg 48%
    21:00 +14°C° 0 mm 2 mps 744 mmHg 53%
    22:00 +13°C° 0 mm 2 mps 744 mmHg 58%
    23:00 +10°C° 0 mm 2 mps 744 mmHg 64%

    Day after tomorrow, 21 July, Sunday

    Time Temperature Precipitation Wind Pressure Humidity
    00:00 +9°C° 0 mm 2 mps 744 mmHg 67%
    01:00 +9°C° 0 mm 1 mps 744 mmHg 71%
    02:00 +8°C° 0 mm 1 mps 745 mmHg 74%
    03:00 +9°C° 0 mm 1 mps 745 mmHg 72%
    04:00 +9°C° 0 mm 1 mps 745 mmHg 70%
    05:00 +10°C° 0 mm 1 mps 745 mmHg 68%
    06:00 +12°C° 0 mm 1 mps 745 mmHg 61%
    07:00 +15°C° 0 mm 2 mps 745 mmHg 53%
    08:00 +17°C° 0 mm 2 mps 745 mmHg 45%
    09:00 +19°C° 0 mm 2 mps 745 mmHg 41%
    10:00 +20°C° 0 mm 2 mps 745 mmHg 37%
    11:00 +22°C° 0 mm 3 mps 744 mmHg 33%
    12:00 +22°C° 0 mm 3 mps 744 mmHg 32%
    13:00 +24°C° 0 mm 3 mps 744 mmHg 31%
    14:00 +25°C° 0 mm 3 mps 743 mmHg 30%
    15:00 +25°C° 0 mm 3 mps 743 mmHg 31%
    16:00 +25°C° 0 mm 3 mps 743 mmHg 31%
    17:00 +25°C° 0 mm 3 mps 742 mmHg 32%
    18:00 +22°C° 0 mm 3 mps 742 mmHg 40%
    19:00 +20°C° 0 mm 2 mps 743 mmHg 48%
    20:00 +18°C° 0 mm 2 mps 743 mmHg 55%
    21:00 +18°C° 0 mm 1 mps 743 mmHg 61%
    22:00 +15°C° 0 mm 1 mps 743 mmHg 66%
    23:00 +13°C° 0 mm 1 mps 743 mmHg 71%

    22 July, Monday

    Time Temperature Precipitation Wind Pressure Humidity
    00:00 +12°C° 0 mm 1 mps 742 mmHg 73%
    01:00 +11°C° 0 mm 1 mps 742 mmHg 75%
    02:00 +11°C° 0 mm 1 mps 742 mmHg 77%
    03:00 +11°C° 0 mm 1 mps 742 mmHg 75%
    04:00 +12°C° 0 mm 1 mps 742 mmHg 73%
    05:00 +13°C° 0 mm 1 mps 742 mmHg 71%
    06:00 +15°C° 0 mm 1 mps 742 mmHg 63%
    07:00 +17°C° 0 mm 2 mps 742 mmHg 54%
    08:00 +20°C° 0 mm 2 mps 742 mmHg 46%
    09:00 +21°C° 0 mm 2 mps 742 mmHg 42%
    10:00 +24°C° 0 mm 3 mps 741 mmHg 38%
    11:00 +26°C° 0 mm 3 mps 741 mmHg 34%
    12:00 +27°C° 0 mm 3 mps 740 mmHg 34%
    13:00 +28°C° 0 mm 4 mps 740 mmHg 34%
    14:00 +28°C° 0 mm 4 mps 739 mmHg 33%
    15:00 +28°C° 0 mm 4 mps 739 mmHg 34%
    16:00 +28°C° 0 mm 4 mps 739 mmHg 36%
    17:00 +28°C° 0 mm 4 mps 739 mmHg 37%
    18:00 +26°C° 0 mm 3 mps 739 mmHg 41%
    19:00 +25°C° 0 mm 3 mps 739 mmHg 46%
    20:00 +22°C° 0 mm 3 mps 739 mmHg 51%
    21:00 +20°C° 0 mm 2 mps 739 mmHg 52%
    22:00 +18°C° 0 mm 2 mps 739 mmHg 53%
    23:00 +16°C° 0 mm 2 mps 739 mmHg 54%

    23 July, Tuesday

    Time Temperature Precipitation Wind Pressure Humidity
    00:00 +14°C° 0 mm 2 mps 739 mmHg 57%
    01:00 +13°C° 0 mm 1 mps 739 mmHg 61%
    02:00 +12°C° 0 mm 1 mps 739 mmHg 64%
    03:00 +12°C° 0 mm 1 mps 739 mmHg 63%
    04:00 +13°C° 0 mm 1 mps 739 mmHg 63%
    05:00 +13°C° 0 mm 1 mps 739 mmHg 62%
    06:00 +15°C° 0 mm 1 mps 739 mmHg 56%
    07:00 +19°C° 0 mm 1 mps 739 mmHg 51%
    08:00 +21°C° 0 mm 1 mps 739 mmHg 45%
    09:00 +23°C° 0 mm 2 mps 739 mmHg 42%
    10:00 +25°C° 0 mm 2 mps 739 mmHg 38%
    11:00 +27°C° 0 mm 2 mps 739 mmHg 34%
    12:00 +27°C° 0 mm 3 mps 738 mmHg 32%
    13:00 +28°C° 0 mm 3 mps 738 mmHg 30%
    14:00 +29°C° 0 mm 4 mps 738 mmHg 28%
    15:00 +28°C° 0 mm 4 mps 737 mmHg 30%
    16:00 +28°C° 0 mm 4 mps 737 mmHg 31%
    17:00 +28°C° 0 mm 4 mps 737 mmHg 32%
    18:00 +25°C° 0 mm 3 mps 737 mmHg 39%
    19:00 +22°C° 0 mm 3 mps 737 mmHg 45%
    20:00 +20°C° 0 mm 2 mps 737 mmHg 52%
    21:00 +18°C° 0 mm 2 mps 737 mmHg 57%
    22:00 +16°C° 0 mm 1 mps 737 mmHg 62%
    23:00 +15°C° 0 mm 1 mps 737 mmHg 67%

    24 July, Wednesday

    Time Temperature Precipitation Wind Pressure Humidity
    00:00 +14°C° 0 mm 1 mps 737 mmHg 69%
    01:00 +13°C° 0 mm 1 mps 737 mmHg 71%
    02:00 +13°C° 0 mm 1 mps 737 mmHg 74%
    03:00 +13°C° 0 mm 1 mps 737 mmHg 73%
    04:00 +14°C° 0 mm 1 mps 737 mmHg 72%
    05:00 +14°C° 0 mm 1 mps 737 mmHg 71%
    06:00 +16°C° 0 mm 1 mps 737 mmHg 62%
    07:00 +19°C° 0 mm 2 mps 736 mmHg 53%
    08:00 +21°C° 0 mm 2 mps 736 mmHg 43%
    09:00 +23°C° 0 mm 2 mps 736 mmHg 37%
    10:00 +25°C° 0 mm 3 mps 736 mmHg 31%
    11:00 +27°C° 0 mm 3 mps 736 mmHg 25%
    12:00 +27°C° 0 mm 3 mps 735 mmHg 24%
    13:00 +28°C° 0 mm 3 mps 735 mmHg 23%
    14:00 +28°C° 0 mm 3 mps 734 mmHg 22%
    15:00 +28°C° 0 mm 3 mps 734 mmHg 24%
    16:00 +28°C° 0 mm 3 mps 734 mmHg 25%
    17:00 +28°C° 0 mm 3 mps 734 mmHg 27%
    18:00 +26°C° 0 mm 3 mps 734 mmHg 35%
    19:00 +23°C° 0 mm 2 mps 733 mmHg 43%
    20:00 +20°C° 0 mm 2 mps 733 mmHg 51%
    21:00 +19°C° 0 mm 2 mps 733 mmHg 56%
    22:00 +18°C° 0 mm 1 mps 733 mmHg 62%
    23:00 +16°C° 0 mm 1 mps 733 mmHg 68%
    Show more